Location: Ciserano
(45.5833°N, 9.6000°E)
Time: 01:28:37
(UTC+00:00)

FALCON 9 DEB - Pass Details

Date: 21 April 2021
Orbit: 369 x 385 km, 53.0° (Epoch: 10 May)

Event Time Altitude Azimuth Distance (km) Brightness Sun altitude
Exits shadow 02:36:46 19° 153° (SSE) 976 4.8 -17.5°
Drops below altitude 10° 02:37:49 10° 145° (SE) 1,381 5.6 -17.4°
Sets 02:39:54 0° 138° (SE) 2,232 6.8 -17.1°
